GFSCGP_sfc_temp_111.txt.gz
Temp
49 44 42 45 50 50 47 45 45 47 52 48 46 48 55 55 50 50 51 52 53 55 60 59 61 62 62 64 64 65 64 64 64 62 62 62 63 64 64 65 65 65 66 65
45 40 48 51 50 49 46 43 43 48 49 47 45 47 52 50 52 52 53 51 53 53 55 57 59 59 61 63 64 64 65 65 64 66 65 65 65 66 67 66 66 65 65 65
39 44 51 50 46 45 44 42 43 44 47 47 44 44 48 49 49 50 50 52 52 54 56 55 55 57 60 60 62 64 65 65 65 65 64 63 64 64 63 64 64 64 65 65
42 50 47 46 44 47 40 47 45 44 42 38 46 33 43 48 49 48 52 49 54 53 53 56 56 55 57 60 62 63 64 65 65 65 64 64 64 63 66 66 65 64 64 64
40 44 43 42 44 49 43 47 44 44 41 37 38 35 39 44 44 47 51 50 54 56 56 57 56 58 58 57 58 61 63 64 65 65 65 64 64 65 66 65 61 59 59 61
43 47 48 47 48 50 45 42 41 38 39 30 38 37 35 44 45 51 53 54 56 57 54 55 53 53 55 52 53 55 59 61 63 64 64 64 64 63 63 60 57 57 56 55
37 38 42 48 43 45 41 37 29 27 28 27 33 35 44 47 47 51 55 56 58 57 55 54 52 52 52 51 51 51 53 56 61 62 63 64 64 64 63 61 58 54 53 54
32 29 39 44 44 37 41 40 28 21 22 28 32 33 41 49 55 52 51 53 51 52 52 52 54 54 52 51 51 51 51 53 54 61 62 63 64 64 64 62 58 56 54 52
31 32 39 42 44 48 39 36 41 32 17 25 32 38 45 45 49 50 49 51 52 53 52 51 50 50 48 48 49 50 50 50 52 54 60 61 62 61 60 57 56 53 50 49
38 32 36 39 45 41 42 46 35 33 20 19 30 32 39 42 48 51 53 52 52 50 49 49 47 47 47 48 49 49 49 49 49 51 53 57 59 58 56 54 51 50 47 46
40 36 32 39 38 37 37 37 38 39 31 23 21 32 43 49 51 52 50 51 52 50 49 47 46 45 45 45 46 46 46 46 47 49 50 51 53 53 52 51 49 48 46 45
41 35 28 32 38 40 41 39 41 33 28 28 28 32 45 47 50 49 51 50 49 48 47 45 44 44 43 44 44 44 44 44 45 47 47 47 47 48 48 48 47 45 43 44
41 34 23 31 36 35 36 37 44 40 33 29 26 37 49 44 45 46 49 49 48 46 45 43 42 42 42 42 42 42 42 43 43 45 46 44 44 46 46 44 43 43 43 41
49 36 35 31 35 37 34 36 38 42 29 36 33 41 44 49 50 49 50 49 47 45 45 43 42 42 42 41 41 41 41 42 41 43 44 42 42 44 43 42 41 40 41 39
44 34 34 33 37 38 37 36 38 39 43 37 43 43 45 48 50 52 50 47 47 46 44 43 43 43 42 41 40 40 41 40 41 42 43 41 41 41 39 38 38 37 38 38
40 29 35 30 35 35 35 38 40 43 44 43 46 44 45 49 47 49 51 49 47 48 47 45 44 43 43 43 42 41 41 39 41 41 41 39 37 37 36 36 35 36 35 35
40 32 24 31 30 31 26 35 38 40 45 46 40 48 45 46 47 48 50 49 49 48 48 46 46 46 46 44 44 42 41 38 38 39 36 36 36 35 36 35 35 34 34 34
38 37 25 16 22 23 38 38 43 42 45 47 49 43 45 49 48 48 50 50 51 49 48 48 49 47 46 44 43 42 39 37 36 35 35 35 35 35 34 34 34 33 33 33
35 33 20 24 15 29 36 38 35 35 39 43 43 45 45 43 42 46 48 48 52 51 50 49 48 46 44 43 42 39 36 36 35 35 35 36 36 34 33 32 32 32 32 31
35 37 31 16 22 20 39 40 39 45 37 52 44 43 42 42 38 49 47 48 47 45 45 46 46 44 43 41 39 37 36 35 35 36 36 36 35 35 34 34 32 31 33 31
21 23 31 22 26 24 34 35 41 31 37 34 40 43 41 42 48 43 42 43 41 40 40 41 41 42 42 37 37 37 36 36 38 36 35 34 35 35 35 33 31 31 30 30
25 23 20 15 25 24 34 34 40 44 38 39 37 40 40 41 41 39 39 37 37 36 36 36 36 37 38 36 36 35 35 37 34 34 34 33 33 33 32 32 30 30 30 29
28 33 27 33 31 37 33 35 37 38 39 37 39 37 39 40 36 37 37 35 34 33 33 32 30 32 35 31 34 34 33 33 33 33 33 32 32 32 32 31 29 28 28 28
33 32 30 33 32 32 35 35 37 38 36 37 37 36 37 37 36 35 35 34 33 29 28 26 28 28 28 26 29 30 31 32 32 32 32 31 31 29 30 31 30 30 28 28
31 34 27 26 31 32 33 35 37 36 36 37 36 36 36 35 35 34 31 29 27 27 26 25 26 26 27 25 25 24 28 30 31 31 29 29 30 29 28 29 29 30 30 32
33 32 32 26 33 34 32 34 36 36 34 35 35 34 33 33 33 31 28 26 25 26 24 25 23 23 25 22 22 22 25 29 29 27 27 29 29 29 28 27 25 30 30 33

GFSCGP_sfc_temp_114.txt.gz
Temp
50 46 46 51 56 54 51 52 52 54 59 53 55 58 63 69 63 65 67 68 68 70 73 73 72 73 73 74 74 74 73 74 73 71 68 69 68 70 72 73 70 68 67 68
47 44 52 56 56 53 51 49 51 55 56 56 56 55 61 65 65 67 69 70 70 70 70 70 71 72 71 73 73 74 74 74 73 72 72 72 71 72 73 72 67 67 67 67
47 48 53 52 51 48 49 50 50 50 53 54 53 52 57 62 64 66 66 70 71 70 70 70 70 71 72 72 72 73 74 75 74 73 73 72 72 71 68 66 67 66 67 66
49 52 49 47 46 51 42 51 51 49 49 46 55 46 58 61 62 60 65 67 68 68 69 72 70 70 71 72 73 74 74 75 74 74 71 69 68 67 70 69 67 68 70 67
46 48 48 44 46 52 45 51 48 48 47 46 48 45 55 57 57 61 62 65 67 69 70 70 70 70 71 71 71 72 73 73 74 73 72 70 69 72 75 73 69 68 65 66
49 54 54 53 51 50 50 46 45 46 45 38 47 45 50 55 56 61 67 67 66 68 68 70 71 70 71 71 69 70 71 72 73 73 71 71 70 70 69 69 67 63 62 63
44 47 51 54 47 49 47 43 31 30 32 36 43 43 51 58 61 64 67 70 69 69 68 67 67 63 66 67 65 67 68 69 71 71 71 71 71 71 70 70 68 64 58 57
34 30 43 51 51 45 44 46 35 28 30 38 38 38 51 59 65 65 65 68 68 66 64 63 66 66 67 64 64 65 64 66 69 70 70 70 70 70 71 72 71 68 65 63
38 38 47 50 51 51 43 39 47 37 28 35 44 49 55 57 57 59 60 59 63 66 64 62 62 64 65 63 62 64 65 63 67 67 69 67 67 66 66 69 70 68 65 58
47 36 44 46 52 50 48 51 37 40 29 30 41 41 48 54 58 60 59 61 63 62 61 61 61 62 63 63 64 64 64 64 64 64 67 65 64 64 64 64 63 62 58 54
50 44 38 46 45 43 44 41 45 46 41 35 34 46 57 56 60 61 62 62 63 62 62 61 60 59 60 60 61 61 60 60 59 60 62 63 65 63 60 58 55 54 52 51
49 42 36 41 46 50 51 46 47 39 34 41 37 43 56 57 58 60 62 61 61 59 59 59 58 54 54 55 57 58 58 58 59 58 59 59 62 60 57 59 56 53 49 52
47 40 31 35 43 44 45 47 49 48 43 35 36 45 60 55 57 59 58 62 61 57 58 56 54 54 53 54 55 56 56 55 55 55 56 56 56 56 55 53 53 51 47 48
50 40 41 35 41 46 39 44 46 46 38 42 43 49 56 60 61 60 58 59 60 60 57 56 54 53 53 54 55 55 54 54 51 52 54 53 53 52 52 50 48 47 46 44
50 37 42 46 46 47 45 44 45 43 47 42 47 48 54 60 62 66 65 63 60 61 58 58 56 55 54 52 53 52 52 51 50 49 50 50 48 49 46 44 42 40 43 41
47 37 42 35 43 45 41 45 46 46 48 49 50 50 61 63 65 64 64 62 61 61 61 60 55 54 52 52 51 50 51 49 48 49 47 46 44 40 39 38 37 37 38 38
43 38 34 34 38 40 34 40 45 47 51 51 45 53 60 58 59 59 60 61 60 60 61 60 59 56 54 53 52 50 50 48 45 44 41 40 40 39 38 36 36 36 36 38
40 38 34 28 32 27 43 55 52 49 51 54 55 56 56 59 61 62 60 60 60 61 60 59 60 59 55 54 51 52 49 44 42 41 39 38 38 37 37 36 36 35 37 36
47 42 32 31 32 41 44 42 46 45 47 54 52 55 57 56 55 59 59 60 61 60 57 57 57 58 56 52 51 46 42 42 41 41 39 38 38 36 36 35 36 36 35 35
42 48 40 27 30 27 46 48 51 54 39 58 55 53 54 51 47 57 55 52 52 52 51 51 51 52 51 51 47 42 40 40 40 41 40 39 38 36 36 37 35 35 36 35
33 34 33 33 33 35 42 44 53 36 41 46 50 55 53 49 57 52 49 46 46 46 46 47 49 48 49 45 42 41 40 39 42 39 38 37 38 36 37 36 36 34 34 34
34 33 32 34 32 29 44 44 45 51 47 47 47 47 48 50 47 45 45 43 43 43 43 42 43 42 43 42 40 39 39 41 37 37 36 35 35 36 35 34 33 34 34 33
35 43 36 39 39 44 45 46 45 45 46 46 47 45 48 46 46 44 42 41 40 39 37 37 36 37 39 35 37 36 38 36 34 34 34 34 34 34 34 34 33 33 33 34
38 40 40 39 41 43 42 42 43 45 44 44 44 44 46 43 41 39 39 37 36 34 33 33 34 34 34 33 33 34 34 34 33 33 33 33 33 33 33 35 35 34 33 34
40 39 34 34 36 39 40 43 42 41 41 40 39 40 42 41 38 38 35 33 33 32 31 32 31 32 32 32 33 33 33 33 33 33 33 33 34 32 33 34 35 35 36 36
36 38 41 41 42 43 40 41 42 41 40 39 38 36 35 38 37 35 32 31 31 31 30 31 31 30 31 30 30 30 30 32 32 32 32 33 34 33 34 34 33 36 36 36

GFSCGP_sfc_temp_117.txt.gz
Temp
47 46 44 51 59 62 59 57 56 60 61 59 60 60 65 71 70 70 72 75 76 76 79 77 76 77 76 76 76 76 75 74 74 73 71 72 71 72 73 75 75 75 75 71
44 42 54 57 60 60 59 55 55 60 59 57 60 59 64 68 70 72 72 73 75 76 77 77 76 75 75 76 76 76 75 75 75 75 74 74 74 73 74 74 74 73 70 68
45 52 53 56 57 55 56 53 54 51 56 57 55 54 58 66 68 71 73 74 75 76 75 76 74 74 75 75 75 75 76 76 77 76 76 75 75 73 71 70 70 69 69 68
49 53 52 53 53 57 46 54 54 51 50 47 57 47 62 67 66 68 69 71 73 75 76 78 75 73 74 74 77 77 77 77 77 77 74 72 70 67 70 72 70 68 70 70
46 47 48 47 51 58 50 55 51 50 47 45 51 46 57 66 62 66 70 69 73 73 75 76 76 74 75 75 75 76 77 77 77 76 75 73 71 72 74 74 71 69 70 70
52 60 56 54 55 54 54 51 48 46 45 34 47 48 52 59 61 65 71 72 72 74 75 76 77 76 75 74 74 74 74 75 76 76 74 73 72 71 72 73 70 69 70 69
46 50 55 56 46 49 48 46 34 32 32 36 48 48 52 63 67 68 69 72 74 75 74 74 73 73 72 71 71 72 72 73 75 75 74 73 72 73 72 72 70 69 68 66
39 34 49 56 53 43 44 48 42 32 35 42 42 40 52 63 64 67 70 71 73 74 75 73 73 71 70 69 71 70 69 70 73 74 74 74 73 73 73 73 72 70 68 67
42 41 52 55 56 53 42 39 52 41 33 37 46 51 59 60 63 63 65 66 67 70 72 71 70 72 70 68 67 67 69 67 71 72 72 73 73 72 71 72 73 71 70 68
51 36 48 50 54 54 52 53 39 43 31 32 44 45 49 57 61 65 64 65 68 70 71 69 69 69 69 70 69 67 68 68 67 71 71 71 71 70 70 70 69 67 68 62
55 45 39 45 43 41 43 44 47 50 45 37 37 48 61 59 60 63 66 66 68 68 68 68 68 68 66 66 66 66 65 65 66 67 68 68 68 68 67 65 65 61 59 58
52 46 35 39 48 54 51 46 48 41 37 45 41 44 61 62 62 64 64 65 67 64 64 65 65 63 62 61 62 62 63 63 63 63 62 63 66 64 61 61 59 56 54 53
51 42 31 33 43 49 46 49 50 51 45 37 36 46 65 64 63 64 64 66 67 63 66 64 62 61 61 60 59 60 61 61 61 61 60 60 60 61 61 58 55 53 52 50
51 45 41 35 42 46 40 45 48 48 39 42 43 51 58 61 63 65 65 65 67 66 66 64 62 61 60 59 60 60 59 59 58 57 57 57 56 58 58 58 54 51 50 48
53 37 45 50 52 49 45 44 46 45 48 44 50 50 57 64 65 67 68 69 67 65 66 67 65 64 62 58 58 58 59 57 56 54 54 55 54 54 52 47 46 44 46 45
54 37 46 36 46 49 44 47 47 47 48 49 51 51 63 66 68 66 66 67 65 66 68 66 64 63 60 59 57 57 56 54 53 53 52 52 48 45 42 41 40 39 38 39
46 38 35 33 41 40 34 42 47 49 51 51 46 54 61 61 62 63 64 66 65 65 65 65 64 63 60 59 58 56 56 55 50 47 44 42 41 40 39 38 37 37 38 38
37 36 34 30 34 27 44 57 55 51 53 55 55 57 60 61 64 65 66 65 63 64 65 64 63 64 62 60 58 57 55 51 45 43 41 39 39 38 37 36 36 37 37 37
51 42 33 31 32 41 47 50 52 50 49 58 56 57 60 62 59 59 65 65 64 65 61 59 59 59 59 59 57 52 46 44 42 42 41 39 38 36 36 35 36 36 35 35
45 49 39 32 32 28 48 54 57 57 39 59 59 57 58 59 48 57 66 61 57 54 52 52 53 53 54 53 51 44 42 42 42 42 41 40 38 36 35 36 36 36 35 34
33 34 34 33 33 37 46 50 56 37 42 52 58 60 59 54 58 56 52 50 49 48 47 48 50 48 48 44 42 42 42 40 42 40 38 36 36 35 36 36 35 34 34 33
36 34 33 34 32 29 50 47 45 52 48 49 51 53 51 57 50 50 50 47 46 45 44 41 43 41 41 40 40 40 40 41 37 36 35 34 34 34 34 34 33 33 33 33
37 44 38 40 40 46 49 50 52 49 50 48 50 49 53 50 49 49 47 45 42 41 38 37 36 36 37 35 36 36 36 35 34 33 32 33 33 33 33 33 33 33 33 33
41 50 43 41 46 45 47 46 47 49 49 48 47 47 50 49 46 41 40 38 38 34 34 33 34 33 33 33 33 33 34 33 33 32 33 33 33 33 33 34 34 34 33 33
43 42 36 37 39 42 43 46 48 44 43 42 42 43 46 43 40 39 35 34 34 33 33 32 32 32 31 32 32 32 32 33 32 32 32 33 33 33 33 33 34 34 35 36
42 43 41 41 45 50 48 46 44 42 42 41 40 38 37 40 37 36 33 33 33 32 32 31 30 30 30 31 31 30 31 31 32 32 32 33 33 33 33 33 33 37 37 37

GFSCGP_sfc_temp_120.txt.gz
Temp
49 46 43 47 51 56 54 52 50 55 58 53 53 55 59 64 63 61 61 63 65 66 69 70 71 70 70 68 68 69 68 68 68 66 64 65 66 64 64 65 67 67 67 66
44 42 51 55 54 52 53 51 53 55 57 53 53 53 60 62 63 63 63 63 64 66 67 69 67 68 69 69 69 68 68 68 69 68 68 66 66 65 65 65 66 66 66 65
45 49 55 53 51 50 50 52 53 51 51 51 47 47 51 59 63 65 66 66 67 66 67 66 67 67 68 68 68 69 69 69 69 68 68 66 66 64 63 63 64 65 65 64
47 52 52 50 49 51 45 52 53 50 47 42 49 38 51 57 58 62 64 65 66 65 66 68 68 67 69 70 70 71 71 70 70 69 67 66 65 64 66 66 65 65 65 64
44 47 48 47 51 53 47 53 48 47 45 42 43 37 46 53 54 58 62 64 66 67 66 66 67 69 70 69 70 70 70 71 71 70 70 67 65 66 67 66 65 64 64 64
49 55 53 53 48 49 52 48 46 43 43 33 41 40 41 49 54 57 61 65 67 66 64 67 67 69 69 68 68 69 69 70 71 71 70 68 67 66 65 65 64 64 64 64
46 47 52 52 44 47 45 44 32 31 30 31 41 38 46 54 57 56 59 60 62 66 63 63 63 62 65 65 67 68 68 68 70 70 70 69 68 68 66 66 66 64 63 63
35 32 46 53 48 41 42 44 33 27 27 31 34 33 43 55 58 57 59 60 58 59 62 62 63 62 62 63 65 66 65 67 68 69 69 70 69 68 68 68 68 66 65 64
40 38 49 52 52 51 43 40 45 34 25 27 35 42 51 53 54 55 56 54 53 55 60 58 59 60 60 59 60 63 64 63 65 67 69 69 69 68 68 68 68 67 66 65
47 34 45 49 52 49 47 49 37 37 23 23 33 34 40 47 51 55 54 55 57 58 58 59 59 59 59 59 59 58 59 59 62 62 66 68 68 68 68 68 66 66 66 63
51 41 37 44 42 40 41 40 43 44 38 28 26 36 49 52 53 52 55 56 56 55 55 56 56 56 56 55 55 55 55 56 56 58 59 61 64 65 65 65 64 62 60 58
49 41 31 35 45 48 46 44 46 38 32 36 33 34 53 53 54 54 54 56 54 55 54 53 54 53 52 52 52 52 53 54 54 55 56 56 58 59 59 59 59 58 56 54
48 37 28 31 38 42 41 45 49 46 38 31 29 36 53 54 52 54 54 54 55 54 53 54 53 52 51 51 50 51 51 52 53 54 53 53 54 55 56 56 54 54 52 51
49 41 35 32 37 41 37 42 45 44 31 32 35 41 49 52 53 53 53 54 55 55 56 55 53 52 51 51 50 50 50 51 51 51 51 50 50 52 53 54 53 51 50 48
48 33 40 44 45 44 42 42 44 42 44 39 45 44 50 52 54 55 56 54 56 57 55 55 55 53 52 49 49 50 50 49 49 48 48 48 48 49 49 47 45 44 45 45
48 31 40 32 42 43 39 43 44 44 45 45 46 45 52 56 56 52 54 54 55 56 57 57 55 54 53 52 49 49 48 48 47 46 46 46 45 43 41 40 39 39 38 39
43 36 33 27 35 36 28 39 42 44 47 46 40 48 51 52 53 53 54 56 56 55 57 57 56 55 53 51 51 48 47 47 45 43 41 40 39 38 38 37 36 36 37 37
38 35 33 27 32 23 36 50 49 45 48 49 50 51 51 52 55 55 56 56 55 57 57 56 53 53 52 51 50 49 47 44 41 38 38 37 37 36 35 34 36 36 36 36
43 36 29 27 23 32 39 44 45 42 43 51 50 52 54 53 50 51 56 56 56 52 51 50 48 49 48 47 47 45 41 39 37 37 37 36 35 33 33 33 35 35 34 34
41 43 34 30 21 20 38 47 51 50 37 52 53 52 51 50 44 53 54 53 48 46 45 45 45 45 44 41 41 39 38 37 37 36 36 36 35 32 32 32 32 31 34 34
31 34 31 25 21 29 41 43 50 32 36 43 51 54 50 47 53 47 44 43 42 41 40 42 41 39 38 36 37 37 36 36 36 36 34 32 32 30 31 30 29 30 30 33
32 30 30 24 20 26 43 41 43 46 39 41 45 46 47 47 44 42 42 40 40 38 37 37 36 33 33 33 35 35 33 34 30 30 30 29 28 30 31 28 29 32 33 33
29 38 33 37 35 41 42 43 43 45 45 42 44 42 45 43 41 41 38 37 35 34 32 32 31 31 31 30 31 31 30 29 28 29 25 29 29 31 31 27 31 32 32 32
34 43 33 36 38 39 42 40 41 42 43 43 42 42 44 43 40 36 34 33 32 29 28 27 27 27 27 28 29 27 28 27 32 32 30 28 28 26 26 29 30 32 32 32
34 40 32 30 32 37 36 41 42 40 39 37 36 37 42 37 34 33 31 30 30 28 26 25 26 26 25 25 25 24 26 26 27 27 28 29 29 27 27 28 28 28 29 33
35 35 37 34 39 42 41 40 39 37 37 35 35 34 35 35 33 32 29 28 27 26 25 25 24 23 22 22 21 22 24 24 24 26 25 25 25 25 25 25 27 35 36 37

GFSCGP_sfc_temp_123.txt.gz
Temp
49 46 44 47 49 54 50 47 48 52 55 49 50 49 55 57 56 56 57 57 58 62 65 67 68 67 67 66 65 65 64 64 66 66 62 62 62 63 61 62 64 65 64 63
45 44 51 52 52 51 49 49 46 51 54 51 48 49 53 56 56 57 58 58 59 60 60 65 66 65 66 66 66 65 65 65 65 65 65 64 64 62 66 65 65 65 64 64
44 48 55 51 48 47 48 48 48 48 51 50 46 44 49 54 60 59 61 61 62 61 62 63 64 65 67 64 65 66 66 65 66 65 65 61 61 60 61 62 63 65 65 64
49 53 50 49 47 50 44 51 50 49 48 39 47 35 45 53 55 59 63 59 64 62 62 66 65 65 66 67 68 67 66 66 67 66 65 64 64 63 65 65 65 63 64 64
44 46 47 46 49 52 48 50 47 46 43 40 40 36 42 48 49 56 60 61 58 60 62 62 66 66 67 68 66 68 66 66 67 67 67 65 65 66 66 65 62 63 64 64
47 52 51 50 49 51 49 47 45 43 42 33 39 39 38 46 52 52 56 60 61 59 61 61 62 67 66 67 66 66 66 66 67 67 66 65 65 64 63 63 62 63 64 64
45 46 49 52 42 46 46 44 32 31 32 32 38 36 44 50 53 55 57 57 57 59 59 62 61 59 62 62 64 65 66 66 67 65 66 66 65 65 63 64 63 62 62 63
38 36 45 50 46 42 44 45 36 28 27 30 34 32 42 53 57 55 58 56 57 57 57 58 63 59 62 62 64 65 64 65 66 67 66 67 67 66 66 66 66 65 64 65
40 36 46 50 51 49 41 38 46 33 21 27 33 39 48 51 52 52 53 52 55 55 56 56 57 57 57 56 58 62 63 64 64 66 66 66 67 66 66 66 65 66 65 65
44 33 44 47 49 49 48 49 39 37 24 22 30 31 39 46 50 53 52 52 53 55 54 55 55 56 55 56 57 57 59 60 61 60 63 66 65 65 67 65 64 64 64 63
44 38 37 43 41 39 41 42 42 41 35 27 25 32 45 50 51 53 53 54 53 53 52 53 53 54 54 53 53 53 53 55 55 57 58 59 60 61 61 64 63 63 61 61
45 37 32 36 43 48 46 46 45 40 32 33 32 35 49 51 52 53 52 53 51 51 51 51 52 51 51 51 51 51 51 51 52 53 54 55 56 57 58 61 61 59 60 57
45 35 29 31 38 42 42 44 47 43 37 31 30 34 49 48 49 50 51 51 52 52 51 51 50 50 49 49 49 49 49 50 51 51 51 51 52 54 55 56 57 57 56 54
46 38 36 33 40 39 36 41 43 41 31 31 37 38 44 48 49 50 51 52 51 52 52 51 50 49 49 49 48 47 48 48 49 49 49 48 49 50 51 52 52 53 53 52
45 32 39 41 42 42 41 41 42 41 44 40 45 42 47 50 50 51 53 51 52 53 53 53 52 51 49 48 47 47 47 47 47 47 47 47 47 47 47 47 47 46 47 48
46 32 37 29 40 42 39 43 44 45 47 46 42 42 52 53 51 50 52 53 55 55 56 56 55 53 52 50 47 47 46 46 45 45 44 44 43 42 42 41 40 40 41 42
41 34 32 25 34 35 27 39 42 45 48 47 40 49 50 51 51 50 52 54 55 54 55 54 54 53 51 49 49 46 46 45 43 41 40 39 38 38 37 36 36 37 37 36
36 36 31 27 33 22 36 47 49 46 47 50 51 48 49 51 53 53 53 53 54 53 53 53 51 50 48 47 46 46 44 42 39 38 38 37 37 36 36 35 35 35 35 37
42 36 29 27 20 30 37 40 43 42 43 50 49 50 48 49 46 47 53 54 55 52 52 49 47 46 43 43 43 41 38 37 37 37 37 36 35 32 33 31 32 36 35 34
40 39 33 27 25 24 35 44 49 48 37 51 51 50 47 46 42 51 54 51 45 44 44 43 42 41 41 38 39 38 36 36 36 36 36 36 35 30 30 31 29 29 33 33
31 31 29 30 25 30 37 41 51 30 38 46 50 52 50 47 53 47 42 40 40 39 39 39 38 36 35 34 36 35 34 34 34 34 33 30 31 28 29 28 28 28 32 33
32 30 28 26 23 27 41 44 42 45 38 42 43 45 47 47 42 41 40 37 37 36 36 35 33 31 31 33 34 33 32 31 29 28 28 27 28 30 30 24 26 32 33 33
31 38 33 36 36 41 40 45 45 44 43 41 43 42 44 40 39 38 36 34 34 33 32 32 30 29 29 28 30 30 28 28 26 27 28 30 30 31 31 24 27 32 32 32
34 40 33 36 38 39 42 39 42 43 43 42 41 41 42 41 38 35 33 32 31 29 28 26 27 25 24 24 26 24 25 28 31 26 27 23 23 26 28 26 26 26 30 31
34 38 30 30 33 36 37 41 44 42 39 38 38 38 41 38 34 34 31 30 29 27 26 25 26 25 23 22 22 21 23 22 25 23 23 28 26 22 23 24 24 26 25 28
33 35 38 32 37 42 42 41 39 39 38 37 37 36 34 35 33 32 29 28 28 26 25 24 22 22 18 17 16 16 16 17 20 25 23 22 22 21 22 21 23 33 35 37

GFSCGP_sfc_temp_126.txt.gz
Temp
52 46 43 47 49 49 49 45 45 48 52 50 49 51 54 57 54 53 53 54 55 57 63 63 64 65 64 65 65 65 64 64 65 65 61 59 60 59 59 61 63 63 63 62
46 43 51 52 50 49 46 43 44 49 52 51 46 47 52 53 56 55 56 55 57 59 59 61 63 62 64 63 65 64 64 64 65 68 69 62 60 59 61 61 62 63 62 62
44 47 52 52 49 45 45 44 43 46 48 51 45 42 47 53 56 57 56 58 59 59 59 59 61 62 64 63 63 65 65 65 66 67 67 64 59 58 58 59 62 62 63 63
47 52 50 48 45 47 41 49 49 47 46 40 47 34 43 49 53 55 60 60 60 58 59 62 62 62 63 65 66 66 65 65 65 65 64 65 62 61 63 64 64 63 63 63
43 47 47 45 47 50 45 50 47 47 43 41 39 40 41 45 47 54 57 60 61 61 59 61 63 65 66 66 66 66 64 64 65 64 64 62 61 63 64 65 61 61 61 63
46 53 50 50 50 51 48 45 44 42 40 33 41 41 38 43 50 51 56 60 60 58 59 61 64 66 66 66 65 64 63 63 64 64 63 62 61 62 60 59 59 60 61 62
44 45 49 52 45 47 46 44 33 32 31 33 39 38 46 49 51 53 55 54 55 56 58 58 57 58 62 60 62 63 63 63 63 63 63 63 63 63 61 61 61 60 60 61
35 34 45 51 48 43 45 46 36 31 29 32 35 32 41 52 57 55 54 56 54 54 56 57 58 59 61 60 62 63 63 63 63 64 64 64 64 64 63 63 64 62 62 62
39 38 46 49 46 48 43 41 46 32 21 26 32 37 47 50 50 51 52 51 52 54 55 54 55 57 58 58 61 62 62 63 63 63 64 64 64 63 64 64 63 64 64 63
44 35 44 46 49 47 45 49 37 36 26 23 30 31 39 45 48 50 50 51 51 52 53 54 53 53 54 56 58 60 62 62 63 63 64 64 64 64 65 64 63 63 65 63
47 41 36 43 41 41 42 41 42 40 36 28 24 31 44 51 50 52 52 53 51 51 52 53 52 52 52 52 51 53 55 56 57 58 62 63 63 63 64 64 63 63 63 62
44 40 33 39 41 43 43 47 47 40 31 31 32 35 46 49 51 51 51 52 50 50 50 49 50 50 50 50 50 50 50 53 55 56 56 58 59 57 59 61 63 61 60 58
43 36 31 31 36 41 42 44 49 42 36 31 29 35 47 46 47 49 50 49 50 49 49 49 49 49 49 49 48 48 48 49 49 50 50 50 51 52 54 54 55 56 56 58
47 37 39 34 41 42 38 42 47 46 38 36 39 38 43 45 48 47 48 49 49 49 50 49 49 48 48 48 47 47 47 47 47 47 47 47 47 48 49 50 50 51 51 53
45 33 37 38 41 42 43 43 44 43 47 41 45 41 46 48 48 49 49 48 49 50 50 51 51 49 47 47 46 45 45 45 46 46 46 46 45 45 45 45 44 46 45 46
45 30 36 29 39 41 38 42 44 44 46 46 46 43 50 52 46 47 50 49 49 50 52 52 51 50 49 49 47 46 45 45 45 45 44 43 43 41 41 40 39 39 40 42
43 33 35 24 32 35 29 38 41 45 49 49 41 50 48 48 50 50 48 50 52 51 52 51 51 51 49 48 48 46 45 43 43 41 40 39 39 39 38 37 37 38 37 37
37 34 29 23 33 25 38 47 49 47 50 52 53 50 49 52 54 51 51 52 52 52 52 51 50 49 47 45 45 44 43 41 39 38 38 37 37 36 36 36 36 35 34 35
48 37 29 27 31 32 37 38 43 42 43 52 51 52 47 48 47 48 52 51 55 52 51 49 47 45 43 43 42 40 37 37 37 37 37 36 35 31 33 30 30 34 33 34
42 42 35 28 25 25 39 42 48 48 37 53 53 53 46 46 43 52 51 50 47 46 44 43 41 40 40 38 38 37 36 36 36 36 36 35 34 29 28 30 28 28 33 33
32 32 31 30 22 28 38 40 52 34 41 53 53 53 51 47 56 53 47 42 41 40 40 39 38 37 36 35 36 35 34 34 33 33 32 29 29 27 28 27 27 27 32 32
31 31 30 24 16 27 40 46 43 48 41 43 44 52 52 54 49 43 42 38 37 36 35 34 32 31 31 34 34 33 32 31 29 28 29 30 31 31 32 23 29 33 33 33
29 41 33 37 36 40 46 40 48 44 46 41 41 42 50 42 41 40 37 35 34 33 32 31 31 29 28 27 31 31 29 28 29 30 30 30 31 31 32 25 33 32 32 32
34 37 34 36 38 37 40 40 41 42 43 42 39 40 42 43 37 35 34 32 32 29 28 25 27 25 25 23 25 27 29 30 29 29 27 24 25 27 27 25 25 23 27 26
33 36 30 29 33 36 36 41 45 43 41 40 38 37 40 37 34 35 31 29 29 28 26 25 25 25 23 22 21 19 20 24 25 26 27 28 24 21 22 23 22 24 22 25
29 27 34 29 31 38 42 42 40 40 41 40 40 38 36 36 35 32 30 29 28 26 25 24 21 21 17 16 15 13 12 22 26 25 23 23 23 22 22 22 23 33 34 36